DECAYED

STARLINK-2090, 47677 (Decayed)

Orbit data source: Space-Track

STARLINK-2090, 47677 was a payload satellite owned by SpaceX/Seattle (US) in LEO that was launched on Tue, 16 Feb 2021 UTC via an FALCON 9 launch vehicle from the Air Force Eastern Test Range (AFETR). Payload-class satellites include a variety of spacecraft equipped with specific instruments for various scientific and technological missions. These include communications satellites like Starlink; space stations such as the ISS; scientific satellites like the Hubble; Earth observation satellites from companies like Planet Labs, Umbra, and HawkEye 360; GPS; miniature CubeSats for education and research; and military/defense satellites.

Not visible in the next 10 days
Identifier
47677, 2021-012BK
Orbit
Decayed
Country
Flag of USUS
Related business
Manufacturer
SpaceX/Seattle
Mission
Decayed Commercial Communications
Bus & Motor
STARLINK, Unknown motor
Mass
260 kg wet, ~248 kg dry
Launch date (UTC)
2021-02-16 (5 years ago)
Launch vehicle
FALCON 9
Launch site
Air Force Eastern Test Range (AFETR)
Object type
Payload
Rocket body
Debris
Shape & HBR
Box + 1 Pan, 10.1 m
Radar Cross Section
13.562 m², Large (>1 m²)

Expand to show TLE details & history
Last TLE update: 10 months ago

TLE from 10 months ago
0 STARLINK-2090
1 47677U 21012BK  25046.34078995  .14807911  12409-4  52845-3 0  9997
2 47677  53.0274 329.6396 0005590 225.2292 232.5317 16.44087482221658
Epoch: 2025-02-15T08:10Z
TLE epoch observation values (Epoch: 2025-02-15T08:10:44.251Z)
Latitude
52.50307°
Longitude
164.06612°
Altitude
163.496 km
Speed
7.813 km/s
True Right ascension
04h 49m 21s
True Declination
52° 19' 18"
Sunlit
Object was in full shadow at epoch
Visualization orbit readout
Latitude
Unknown
Longitude
Unknown
Altitude
Unknown
Speed
Unknown
Apparent Right ascension
Unknown
Apparent Declination
Unknown
Sunlit
N/A
Visualization observer readout
Local Sidereal Time
03:24:02
Azimuth
Unknown
Elevation
Unknown
Doppler factor
Unknown
Orbital elements
Apogee altitude
158.895 km
Perigee altitude
151.591 km
Semi-major axis
6,533.38 km
Eccentricity
0.00056
Inclination
53.0274°
RAAN
329.6396°
Arg. of periapsis
225.2292°
True anomaly
232.48088°
Mean anomaly
232.5317°
Eccentric anomaly
232.50629°
Mean motion
4.10995 °/min
Orbital period
87.59 mins
BSTAR
0.00052845
Loading maneuver chart data...
Computing Atmospheric mass density...

Documentation

Showing up to 5 results
|